Location: *
(44.1392°N, 4.8079°E)
Time: 13:56:11
(UTC+00:00)

FALCON 9 DEB - Visible Passes

Search period start: 22 October 2021 00:00
Search period end: 01 November 2021 00:00
Orbit: 419 x 429 km, 53.0° (Epoch: 21 October)

Date Brightness Start Highest point End Pass type
(mag) Time Alt. Az. Time Alt. Az. Time Alt. Az.
24 Oct 4.8 18:21:45 10° SSW 18:23:33 22° SSE 18:23:33 22° SSE visible
25 Oct 4.9 17:36:38 10° S 17:38:56 17° SE 17:39:57 15° ESE visible
25 Oct 5.7 19:11:59 10° WSW 19:13:03 18° WSW 19:13:03 18° WSW visible
26 Oct 3.0 18:26:04 10° SW 18:29:19 76° S 18:29:19 76° S visible
27 Oct 3.4 17:40:18 10° SW 17:43:36 48° SE 17:45:28 22° ENE visible
27 Oct 6.0 19:17:24 10° W 19:18:33 18° WNW 19:18:33 18° WNW visible
28 Oct 4.0 18:31:12 10° W 18:34:29 42° NNW 18:34:36 42° NNW visible
29 Oct 3.4 17:45:04 10° WSW 17:48:28 62° NNW 17:50:34 21° NE visible
29 Oct 6.3 19:23:05 10° WNW 19:23:37 13° WNW 19:23:37 13° WNW visible
30 Oct 3.1 16:59:04 10° SW 17:02:30 86° SE 17:05:56 10° ENE visible
30 Oct 5.0 18:36:45 10° WNW 18:39:31 24° NNW 18:39:31 24° NNW visible
31 Oct 4.6 17:50:26 10° W 17:53:31 30° NNW 17:55:21 18° NNE visible
